weather.gov     
National Weather Service

Regional Weather Roundup
NWS Homepage
This page is being discontinued on March 12, 2014.
The same data is available at this site. Please update your bookmarks.
Thank you, and we apologize for the inconvenience.
Please send an email to SR-SRH.Webmaster@noaa.gov with any concerns.


Current Version
Previous Version:    01  02  03  04  05  06  07  08  09  10  11  12  13  14  15  16  17  18  19  20  21  22  23  24  25  26  27  28  29  30  
   31  32  33  34  35  36  37  38  39  40  41  42  43  44  45  46  47  48  49  50  51  52  53  54  
[Printable]
612
ASUS43 KGRB 232210
RWRGRB

NORTH-CENTRAL AND NORTHEAST WISCONSIN REGIONAL WEATHER ROUNDUP
NATIONAL WEATHER SERVICE GREEN BAY WI
500 PM CDT THU OCT 23 2014

WIZ005-009-010>012-018-019-232300-
NORTH CENTRAL WISCONSIN

CITY           SKY/WX    TMP DP  RH WIND       PRES   REMARKS
IRONWOOD       CLOUDY    48  46  93 SW10      29.95S
MANITOWISH WTR CLOUDY    45  45 100 S7        29.99S FOG
ARBOR VITAE    CLOUDY    46  44  95 S5        29.99F FOG
EAGLE RIVER    CLOUDY    45  45 100 CALM      30.00S FOG
LAND O LAKES   CLOUDY    45  44  97 CALM      30.00S
RHINELANDER    CLOUDY    44  43  96 S6        30.01F FOG
PHILLIPS       CLOUDY    46  46 100 S5        29.99S FOG
ANTIGO         FOG       43  43 100 S6        30.03S VSB 1/4
TOMAHAWK       CLOUDY    45  44  96 CALM      30.01F FOG
MERRILL        CLOUDY    46  46  99 CALM      30.01F FOG
$$

WIZ013-073-232300-
NORTHEAST WISCONSIN

CITY           SKY/WX    TMP DP  RH WIND       PRES   REMARKS
IRON MOUNTAIN  LGT RAIN  45  44  97 S7        30.01S FOG
MARINETTE      CLOUDY    50  45  81 S6        30.03F
OCONTO         CLOUDY    49  48  93 CALM      30.04S
$$

WIZ017-030-035>037-045-232300-
CENTRAL WISCONSIN

CITY           SKY/WX    TMP DP  RH WIND       PRES   REMARKS
MEDFORD        FOG       46  46  99 S3        30.00F VSB 1/2
WAUSAU         CLOUDY    46  45  96 S5        30.01S FOG
MOSINEE        CLOUDY    46  46 100 S3        30.03S FOG
MARSHFIELD     FOG       48  47  96 SW3       30.01S VSB 1/2
WISC RAPIDS    CLOUDY    47  46  97 S5        30.04S
STEVENS POINT  CLOUDY    45  45  99 S3        30.03S FOG
WAUPACA        RAIN      49  47  96 CALM      30.05R
SHAWANO        DRIZZLE   49  47  92 CALM      30.05R
CLINTONVILLE   CLOUDY    46  45  93 S5        30.05R FOG
$$

WIZ038-039-048-051-232300-
FOX VALLEY

CITY           SKY/WX    TMP DP  RH WIND       PRES   REMARKS
NWS GREEN BAY  LGT RAIN  49  47  93 SW5       30.05S FOG
APPLETON       LGT RAIN  48  46  93 S12       30.05S FOG
OSHKOSH        LGT RAIN  50  48  93 E3        30.05F FOG
FOND DU LAC    LGT RAIN  50  48  93 CALM      30.05F
$$

WIZ022-050-052-232300-
EAST CENTRAL WISCONSIN

CITY           SKY/WX    TMP DP  RH WIND       PRES   REMARKS
STURGEON BAY   CLOUDY    50  45  81 S8        30.06R
MANITOWOC      LGT RAIN  51  48  89 S12       30.07R
SHEBOYGAN      LGT RAIN  50  47  89 S7        30.07F FOG
$$

LMZ563-521-522-541>543-232300-
LAKESHORE

STATION/POSITION TIME  TEMP    WIND        PRES    VSBY  WAVE
                       AIR SEA DIR/SP/G                  HT/PER
                 (UTC) (F)     (DEG/KT/KT) (MB)    (MI)  (FT/S)
SHEBOYGAN LKSHOR 2200   50 51  190/  9/ 10 1018.7F
KEWAUNEE LKSHORE 2200   51     190/ 13/ 16 1017.2R
TWO RIVERS CG    2100   50                 1018.5      6   2
NORTHPORT PIER   2200   51     170/  5/  9 1017.6S
N MID LAKE BUOY  2200   51 51  190/ 17/ 19 1017.8F         3/ 5
SISTER BAY LKSHO 2100          200/ 13/ 15   N/A
STURGEON BAY CG  2100   50 48  180/ 12     1019.2      6   2
CHAMBERS ISLAND  2200   51     170/  1/  5 1017.6S
MENOMINEE LKSHOR 2200   50     180/  3/  3 1017.8F
$$




U.S. Dept. of Commerce
NOAA National Weather Service
1325 East West Highway
Silver Spring, MD 20910
E-mail: w-nws.webmaster@noaa.gov
Page last modified: May 16, 2007
NATIONAL WEATHER SERVICE: for Safety, for Work, for Fun - FOR LIFE